Wetbulb
42.50 42.71 42.59 42.77 42.94 43.13 43.28 43.63 43.90 44.24 44.47 44.85 45.03 45.07 45.54 45.47 45.61 43.76 41.17 43.93 37.95 33.35 35.92 37.51 37.86 34.59 35.37 35.11 30.27 34.74 34.06 34.63 33.70 29.98 28.64 27.51 26.68 28.99 28.24 30.41 29.10 30.37 28.16 27.18 28.77 27.03 24.31 42.64 43.01 37.23 40.65 44.37 45.58 47.27
42.55 42.71 42.90 43.12 43.38 43.81 43.92 43.91 44.23 44.54 44.78 45.41 45.62 45.25 45.32 45.66 45.94 45.29 39.18 43.87 44.00 37.19 36.09 41.53 41.45 41.88 40.89 39.94 36.52 36.95 35.00 34.48 35.25 31.89 30.70 30.63 27.78 29.41 29.88 25.04 34.10 27.99 34.07 33.01 33.35 31.09 41.64 43.30 42.29 44.98 47.44 44.49 46.53 47.40
42.87 43.21 43.40 43.79 43.88 44.02 44.28 44.45 44.71 44.97 45.04 45.17 45.26 45.46 45.71 45.71 45.89 45.35 41.67 42.73 40.95 36.16 33.72 37.26 36.72 41.56 43.37 42.96 44.31 34.97 36.66 39.16 37.35 40.31 35.79 32.57 27.89 31.39 28.04 29.09 32.07 34.88 38.46 35.29 35.29 38.71 40.31 42.24 44.67 45.39 45.72 45.83 47.82 49.31
42.98 43.14 43.45 43.62 44.02 44.45 44.72 44.85 44.82 44.81 45.08 45.19 45.42 45.58 45.86 45.86 45.93 45.67 41.94 43.11 40.57 35.94 30.98 34.41 41.53 39.06 43.87 43.62 43.05 43.17 41.10 42.40 41.66 41.05 36.19 33.91 30.96 35.82 31.41 33.06 32.60 35.68 37.81 35.88 35.11 38.22 41.19 43.03 43.99 44.25 45.40 47.61 47.98 48.74
43.17 43.84 44.16 44.63 44.55 44.82 44.96 44.94 44.91 45.18 45.13 45.42 45.66 45.75 45.93 46.52 46.22 45.28 43.70 43.47 42.65 37.26 31.31 32.47 37.01 40.02 41.96 42.13 41.16 42.25 41.65 40.32 38.91 35.74 33.25 32.41 36.09 35.83 35.87 34.67 33.34 37.39 36.09 33.49 32.40 39.16 40.05 41.27 43.19 44.51 45.62 43.39 42.76 45.42
44.79 45.52 45.61 45.61 45.63 45.84 45.79 45.74 45.65 45.65 45.48 45.71 46.03 46.12 45.96 45.86 46.08 42.62 36.16 42.13 43.78 42.37 34.79 28.92 36.34 36.35 39.08 40.26 39.62 39.53 39.86 40.26 39.02 36.45 35.36 37.04 39.20 37.58 31.54 30.31 36.46 39.63 40.58 40.84 38.09 41.72 42.59 42.76 43.46 44.32 44.30 41.23 39.64 39.80
45.41 45.73 45.65 45.41 44.85 44.53 44.77 44.86 45.12 45.42 45.65 45.90 46.13 46.30 46.10 45.56 43.51 37.52 35.65 41.14 44.13 43.25 34.98 29.49 28.83 34.73 38.47 38.20 37.98 37.75 40.14 39.42 38.49 35.66 34.14 35.63 36.71 38.54 32.66 29.58 36.37 39.24 40.42 40.65 41.51 41.57 40.12 41.02 41.07 42.14 41.22 39.09 37.40 36.31
45.46 45.33 43.75 44.19 44.77 44.75 44.86 44.56 44.66 45.21 45.34 45.64 46.01 46.12 45.89 45.55 43.67 39.17 43.23 44.80 43.92 38.63 37.18 26.62 25.86 32.65 38.36 33.67 32.61 37.86 35.96 37.77 37.63 36.20 36.41 35.45 37.25 36.80 31.66 35.67 38.43 40.11 40.82 41.00 41.07 41.82 41.87 42.53 40.88 38.61 38.55 38.09 35.49 33.67
44.95 44.95 44.58 43.40 43.65 44.32 44.62 44.93 45.24 45.58 45.54 45.62 46.10 46.06 44.36 37.10 33.96 39.26 45.09 44.86 44.31 38.80 31.05 29.07 23.84 25.66 37.36 34.96 36.59 36.66 37.76 31.80 37.89 32.92 34.22 35.62 33.56 30.23 34.80 36.10 37.62 38.95 38.77 39.49 41.92 41.82 43.27 41.10 39.11 37.39 36.39 34.26 31.22 29.29
44.54 44.47 44.29 44.44 44.09 44.52 43.80 44.98 45.26 45.73 45.45 45.66 42.41 33.88 31.22 37.59 45.16 44.31 40.66 34.27 35.28 37.16 34.39 28.29 31.04 28.13 35.32 34.49 32.02 31.78 33.97 31.64 28.00 31.72 36.52 32.42 31.77 36.85 37.94 38.99 39.25 38.56 39.77 41.00 39.17 39.51 39.22 36.96 33.85 31.78 32.44 31.90 30.29 28.36
44.70 44.80 44.77 44.69 44.53 44.30 43.57 43.60 43.85 43.80 43.27 37.80 33.58 34.44 41.49 44.36 39.87 35.97 30.67 30.33 31.35 29.16 31.55 31.42 32.09 30.95 36.26 31.85 31.62 33.58 31.41 31.23 26.49 30.79 31.32 30.37 29.77 33.71 36.42 36.42 34.83 34.61 34.96 34.55 35.11 34.81 35.79 37.99 31.86 28.71 27.43 27.60 27.71 26.66
44.63 44.65 44.62 44.66 44.98 44.98 44.70 44.41 44.46 42.53 41.40 40.90 39.87 42.10 40.75 36.55 32.27 28.57 27.13 29.74 27.43 25.84 31.07 30.52 32.12 33.73 33.56 35.66 32.70 31.53 28.69 29.80 24.89 32.44 30.40 26.55 31.19 33.71 34.35 33.77 33.34 33.04 31.66 30.47 31.04 30.33 30.31 30.03 29.71 28.58 26.65 25.99 25.04 23.35
44.09 44.11 44.50 44.02 43.65 44.81 44.62 44.33 44.18 43.93 42.80 39.64 34.57 31.55 32.06 26.05 19.93 17.09 21.43 25.28 25.97 29.44 32.36 32.30 31.06 32.35 32.33 33.37 30.38 29.86 27.51 26.85 31.57 29.14 26.99 29.05 29.70 31.50 31.48 31.07 29.90 30.35 29.68 28.76 27.71 28.13 27.54 26.89 27.30 26.22 24.43 24.00 22.93 21.13
43.43 43.87 43.90 43.62 43.44 43.20 42.12 41.67 41.59 40.12 36.79 29.39 23.92 15.84 16.79 15.32 19.33 21.30 24.75 26.66 28.14 29.88 32.03 31.80 30.66 31.03 31.92 29.74 30.20 25.91 27.34 30.18 26.35 25.11 25.60 26.10 27.49 28.27 28.47 29.34 28.16 26.78 27.58 27.14 26.63 26.10 24.97 23.83 22.89 22.63 22.03 21.50 19.74 18.24
42.86 43.10 42.70 42.64 43.57 43.01 41.78 41.27 38.93 34.65 29.80 22.86 22.91 15.73 16.12 22.47 22.34 23.88 25.39 27.66 27.32 29.15 32.48 31.69 31.94 32.18 28.93 28.28 29.59 27.50 25.45 24.25 25.66 22.61 21.29 24.43 26.56 27.08 26.49 25.96 24.99 24.28 23.88 23.59 23.54 22.05 21.50 21.37 20.37 20.12 20.92 20.45 19.34 17.29
42.23 41.74 40.58 42.44 42.85 41.45 40.64 38.11 35.75 32.19 26.75 20.38 17.67 16.46 18.10 19.73 18.12 19.79 20.32 22.82 26.35 25.97 30.07 32.99 29.50 25.85 25.57 27.65 25.74 21.74 23.04 20.30 18.39 20.77 23.11 25.33 24.48 24.24 24.06 24.32 23.61 23.39 22.52 21.83 21.64 20.82 20.10 19.21 18.08 17.79 18.10 17.49 16.63 15.96
40.62 36.33 41.15 42.43 42.12 39.59 39.16 34.18 31.28 26.49 23.18 19.25 16.49 19.90 18.92 17.04 15.20 17.31 19.63 21.64 25.57 25.44 27.57 26.56 21.46 19.69 25.24 20.95 17.34 20.21 16.30 19.56 21.99 22.16 23.05 23.15 22.85 22.68 22.82 22.51 22.11 21.87 21.23 20.71 20.15 19.94 19.41 19.76 19.15 17.72 15.31 16.36 16.37 15.48
36.04 37.13 41.45 41.50 40.14 37.78 33.87 31.30 27.78 24.48 17.57 18.83 16.21 17.80 19.53 19.28 18.26 18.60 21.67 23.89 25.21 26.82 24.83 21.30 24.41 18.46 15.86 15.27 16.01 20.76 21.43 21.08 22.21 22.75 22.91 23.32 23.37 23.47 23.91 22.66 22.53 22.30 21.38 20.88 20.45 19.85 19.24 18.00 16.67 15.76 15.85 15.85 15.02 14.54
38.11 39.07 40.41 40.17 37.67 33.23 29.61 27.90 26.93 17.02 17.15 18.43 18.63 19.45 19.47 19.15 21.14 22.06 21.95 24.33 25.67 25.35 23.68 20.67 15.59 13.79 15.02 20.30 20.81 21.05 21.05 21.01 18.88 19.95 20.98 22.61 23.71 22.91 22.58 22.89 22.51 21.61 21.19 20.67 19.87 18.77 18.63 18.63 17.44 16.93 15.98 15.09 12.53 12.09
39.75 39.96 39.83 38.90 36.37 29.36 26.36 25.77 27.41 20.13 14.81 17.46 19.54 18.46 18.85 18.62 19.47 19.75 19.06 20.43 20.92 18.77 14.29 12.45 12.00 14.75 17.09 20.02 23.52 22.05 21.57 21.62 19.84 17.47 17.63 19.69 21.53 20.86 20.22 20.22 19.25 19.32 18.57 18.33 18.12 17.82 16.59 15.77 16.43 16.13 15.08 13.48 11.72 10.73
35.30 35.25 36.90 34.29 30.68 30.48 28.79 26.21 21.96 20.80 19.76 19.38 20.72 21.14 18.99 20.10 16.72 15.09 15.03 18.23 14.27 12.22 11.71 14.35 14.69 17.40 19.19 20.44 22.35 22.39 21.46 21.44 19.74 19.43 17.65 16.81 19.57 19.60 18.87 19.11 19.48 18.75 16.89 15.80 14.05 13.51 13.54 12.52 13.17 13.38 12.31 11.09 10.97 10.33
30.41 36.12 28.80 31.57 29.07 29.46 27.76 28.27 25.91 24.30 22.42 22.00 22.14 20.77 16.21 14.47 14.70 14.68 16.16 11.33 9.93 11.20 13.03 13.40 14.94 15.99 17.09 16.68 18.31 20.07 20.24 20.01 19.51 19.14 19.34 19.10 17.05 16.87 16.63 17.10 16.14 14.78 14.55 14.12 13.42 11.91 11.65 11.90 11.89 11.16 9.70 8.98 8.91 8.23
31.39 30.95 27.37 27.04 23.28 21.64 26.45 31.47 22.94 26.31 20.12 21.41 21.86 16.65 14.71 14.35 16.16 18.09 10.41 11.52 11.52 14.02 14.39 15.05 16.45 17.52 15.86 17.51 18.45 18.10 18.74 18.03 16.49 16.54 16.30 15.99 16.46 17.00 16.69 16.46 16.19 13.85 12.05 11.92 12.41 10.74 9.39 9.34 8.89 8.32 8.15 7.52 6.38 4.80
28.47 21.06 17.96 17.09 19.84 14.41 21.32 18.24 24.09 22.60 21.20 20.83 17.86 13.69 14.69 15.01 16.73 11.42 6.89 8.52 11.38 13.20 12.63 13.65 14.55 14.96 15.29 14.48 12.89 13.73 16.77 17.64 15.77 15.48 16.30 14.97 12.99 12.88 13.75 13.15 13.31 13.68 12.89 12.14 10.64 9.53 8.70 7.61 7.59 7.08 6.02 5.22 3.89 2.92
14.18 9.41 12.45 8.44 14.89 12.45 10.48 9.88 11.93 14.38 11.85 13.54 12.83 10.99 11.84 15.72 8.96 6.71 5.06 6.88 9.56 9.31 10.37 12.81 12.60 10.67 10.48 11.26 11.72 12.34 14.71 15.42 13.44 12.17 15.10 15.41 13.82 13.26 11.84 11.16 11.35 12.38 12.77 10.23 7.95 7.06 6.24 6.38 5.95 5.53 5.00 4.16 2.32 0.57
4.55 7.89 7.89 8.09 8.51 8.29 9.00 4.99 5.67 6.31 6.33 6.63 6.83 7.81 8.70 5.36 2.17 1.57 4.78 7.05 9.09 9.12 9.08 9.97 10.57 9.62 8.14 9.03 8.31 8.60 10.21 14.43 13.64 9.80 9.59 13.00 14.66 13.63 12.22 11.10 9.96 8.85 11.33 10.67 8.74 6.50 5.60 5.50 4.83 3.57 2.31 1.00 -0.75 -1.04
-0.92 0.59 9.41 11.70 11.39 10.81 4.60 5.52 7.61 4.10 2.18 1.64 2.99 -0.00 0.47 -4.05 -1.86 4.60 9.91 10.17 9.28 10.46 11.29 11.79 11.52 10.01 8.88 9.08 9.93 10.55 10.92 10.86 9.66 8.91 9.72 9.51 9.30 10.27 11.69 10.14 8.17 8.55 10.78 10.15 9.10 7.64 5.58 4.04 3.06 1.54 -1.17 -0.70 -0.16 -0.04
7.92 7.44 -0.28 -0.32 2.34 4.71 -4.05 -2.64 -1.88 -0.51 1.61 6.05 2.65 -3.77 -4.52 -4.71 0.37 7.80 9.96 12.43 12.49 12.37 11.64 11.65 11.50 10.58 9.58 9.70 10.94 11.90 12.10 12.34 12.20 11.81 11.28 9.76 8.30 7.56 7.74 7.98 8.96 8.86 7.24 7.54 7.30 6.53 5.66 3.97 2.03 0.77 0.61 -0.46 -4.63 -7.27
-1.05 2.34 2.77 -6.15 -2.49 -1.26 -0.77 -2.16 -1.28 2.81 4.79 1.92 -7.61 -3.90 0.47 5.15 6.90 8.93 11.00 12.24 12.75 11.22 8.97 8.64 9.15 11.04 10.02 9.27 8.23 7.57 7.47 9.30 9.56 6.60 5.28 4.76 5.37 4.75 5.42 5.85 5.99 6.39 7.26 7.14 7.59 4.52 3.40 1.71 0.87 0.82 -1.25 -1.65 -5.78 -7.58
-2.08 1.54 -4.17 -9.07 -7.41 -4.26 -1.95 -1.68 -1.61 -1.15 3.33 5.09 7.22 6.50 4.91 5.25 7.44 10.11 9.02 8.31 6.59 5.21 5.93 6.74 7.13 7.91 6.73 6.81 5.95 5.38 5.61 5.44 6.22 7.46 4.85 3.19 3.05 3.46 3.92 4.27 4.41 4.84 6.49 5.20 3.77 3.60 4.30 0.07 -0.16 -3.98 -4.47 -5.21 -3.69 -3.41
-0.88 -2.28 -3.93 -3.33 -2.28 -0.10 -3.87 -9.95 -8.81 -5.48 -4.42 -4.04 -6.66 -4.56 -2.53 -1.09 4.85 6.55 5.60 6.05 6.58 6.05 5.25 3.18 1.92 1.28 1.75 1.07 2.03 3.40 2.26 3.61 4.16 4.90 5.33 4.23 3.57 2.56 1.52 0.68 1.71 3.35 3.27 1.66 0.78 -0.23 -1.53 -2.70 -2.41 -3.04 -2.68 -3.99 -6.64 -5.32
-7.02 -12.97 -5.75 -5.17 -1.92 -2.23 -3.97 -9.56 -12.06 -8.10 -6.62 -4.47 -5.62 -9.52 -7.51 -5.02 -5.18 1.48 4.47 3.96 4.52 2.44 1.61 1.67 0.86 -0.46 0.24 0.84 0.39 0.91 -0.01 0.61 0.77 1.21 1.37 0.78 -0.04 -0.38 0.26 -0.24 0.11 1.31 0.84 -0.17 -0.67 -1.73 -2.46 -2.49 -3.70 -3.42 -3.95 -4.97 -6.94 -7.31
-10.83 -12.60 -12.06 -7.17 -5.00 -5.17 -2.34 -2.57 -2.58 -6.62 -7.34 -6.80 -6.08 -12.06 -14.05 -9.25 -8.28 0.43 4.02 3.09 2.36 1.59 0.13 -1.44 -1.84 -1.57 -1.59 -1.23 -1.05 -0.71 -0.99 -0.47 0.33 2.42 -0.65 -1.36 -3.05 -2.90 -3.08 -2.80 -1.79 -1.43 -2.00 -3.07 -3.74 -3.15 -3.92 -5.18 -6.08 -7.16 -8.25 -8.63 -9.35 -10.29
MSLP
1004.57 1004.27 1004.01 1003.76 1003.61 1003.53 1003.52 1003.60 1003.78 1004.01 1004.34 1004.75 1005.22 1005.78 1006.36 1007.18 1008.16 1009.32 1009.66 1010.51 1011.42 1011.17 1010.74 1010.43 1010.16 1010.26 1010.26 1010.65 1011.17 1011.36 1011.78 1011.95 1012.51 1012.31 1012.25 1012.03 1011.42 1010.48 1009.76 1008.85 1008.35 1008.49 1008.68 1008.52 1008.40 1007.38 1005.69 1003.50 1002.74 1002.24 1002.82 1002.01 1001.22 1000.61
1002.81 1002.43 1002.11 1001.86 1001.70 1001.60 1001.61 1001.77 1002.00 1002.31 1002.70 1003.10 1003.53 1004.14 1004.72 1005.49 1006.49 1007.80 1008.31 1009.18 1010.11 1010.72 1010.18 1009.60 1009.11 1008.84 1008.67 1008.91 1009.64 1010.34 1010.74 1010.70 1011.23 1011.38 1011.40 1011.15 1010.79 1010.04 1009.05 1008.20 1007.40 1007.44 1006.62 1006.39 1006.45 1005.53 1004.40 1003.47 1003.11 1002.37 1002.02 1001.01 1000.60 1000.40
1000.99 1000.54 1000.16 999.92 999.81 999.79 999.86 1000.04 1000.30 1000.65 1001.09 1001.55 1002.10 1002.67 1003.36 1004.19 1005.11 1006.21 1006.95 1007.95 1009.14 1009.47 1009.96 1009.42 1008.74 1008.39 1008.31 1008.18 1008.12 1009.04 1009.54 1009.87 1010.46 1010.67 1011.04 1011.13 1010.68 1009.64 1008.59 1007.59 1006.83 1005.90 1005.69 1005.65 1005.46 1004.05 1003.94 1002.93 1002.39 1002.14 1001.62 1000.72 999.93 1000.10
999.23 998.78 998.39 998.11 997.95 997.86 997.93 998.16 998.48 998.91 999.45 1000.11 1000.82 1001.49 1002.22 1003.07 1004.08 1005.20 1005.93 1006.80 1007.96 1008.75 1008.83 1008.20 1007.95 1007.76 1007.12 1007.61 1007.86 1008.12 1008.48 1008.97 1009.47 1010.00 1010.49 1010.44 1010.15 1009.72 1008.45 1007.25 1006.44 1005.67 1005.21 1004.65 1004.11 1003.52 1003.20 1002.67 1002.41 1002.18 1001.16 1000.50 1000.17 1000.22
997.34 996.59 996.00 995.66 995.65 995.80 995.96 996.21 996.57 997.10 997.81 998.60 999.49 1000.42 1001.31 1002.31 1003.24 1004.44 1005.23 1005.97 1006.73 1007.32 1007.51 1007.74 1007.37 1006.98 1006.86 1007.16 1007.60 1007.93 1008.34 1008.74 1009.26 1009.72 1009.66 1009.54 1009.33 1009.12 1008.12 1007.48 1006.17 1005.24 1004.65 1004.66 1003.66 1003.13 1003.09 1002.52 1002.52 1002.21 1001.99 1001.81 1001.49 1000.93
995.29 994.67 994.29 994.10 994.05 994.05 994.03 994.21 994.61 995.14 996.09 997.04 998.09 999.22 1000.39 1001.58 1002.88 1004.11 1004.88 1005.68 1006.07 1006.73 1007.47 1007.67 1006.95 1006.48 1006.53 1006.90 1007.28 1007.64 1008.00 1008.59 1009.00 1009.06 1009.07 1008.84 1008.17 1008.06 1007.51 1006.51 1005.09 1004.33 1004.06 1003.82 1003.30 1002.81 1002.93 1002.69 1002.63 1002.66 1002.68 1003.06 1002.81 1002.11
994.24 993.74 993.42 993.08 993.10 993.18 993.18 993.20 993.38 993.76 994.51 995.63 996.82 998.10 999.39 1000.83 1002.33 1003.14 1003.77 1003.81 1005.39 1006.57 1007.23 1007.55 1007.05 1006.36 1006.25 1006.64 1007.19 1007.63 1007.95 1008.26 1008.72 1008.77 1008.59 1008.33 1007.73 1007.34 1006.40 1005.27 1004.72 1004.21 1003.74 1003.53 1003.06 1003.13 1002.88 1002.53 1002.59 1003.02 1003.51 1004.26 1004.64 1003.91
993.87 993.41 993.22 993.03 992.75 992.30 991.85 991.63 991.82 992.37 993.38 994.52 995.91 997.37 999.11 1000.58 1002.50 1003.41 1003.49 1003.94 1004.74 1006.25 1007.00 1007.27 1006.96 1006.72 1006.22 1006.63 1007.01 1007.07 1007.55 1008.05 1008.02 1007.99 1008.06 1007.88 1007.40 1006.86 1005.17 1004.17 1003.59 1003.11 1002.97 1002.84 1002.39 1002.75 1002.68 1002.45 1003.01 1003.73 1004.37 1004.98 1005.85 1005.39
993.97 993.58 993.40 992.98 992.32 991.35 990.26 989.79 989.53 990.20 991.99 994.00 995.77 997.32 999.36 1000.99 1002.18 1002.62 1003.54 1004.39 1004.77 1005.59 1006.06 1006.62 1006.50 1006.32 1006.18 1006.19 1006.20 1006.80 1006.87 1007.39 1007.39 1007.14 1007.11 1007.34 1006.45 1005.13 1003.99 1003.62 1002.84 1002.47 1002.61 1002.30 1002.30 1002.45 1002.55 1002.98 1003.26 1004.07 1004.87 1005.74 1007.14 1007.57
994.37 994.00 993.75 993.22 992.47 991.36 990.54 989.45 988.77 989.18 991.68 994.22 996.37 997.95 999.65 1000.67 1001.47 1003.00 1004.19 1004.91 1005.17 1005.21 1005.70 1005.77 1005.76 1005.89 1005.94 1005.85 1006.09 1006.41 1006.39 1006.44 1006.43 1006.18 1006.27 1005.89 1004.61 1003.70 1003.47 1003.24 1002.87 1002.93 1002.74 1002.89 1003.07 1003.15 1003.39 1004.05 1004.32 1005.23 1005.86 1006.56 1008.01 1009.32
995.07 994.65 994.15 993.72 993.23 992.74 992.36 991.75 991.60 992.00 993.32 995.18 996.14 997.43 999.12 1000.29 1001.77 1003.25 1004.11 1004.64 1004.98 1005.13 1005.03 1004.92 1004.97 1005.14 1005.41 1005.42 1005.64 1005.86 1005.12 1005.56 1005.41 1005.07 1005.22 1004.81 1003.92 1003.39 1003.60 1003.73 1004.02 1004.14 1004.05 1004.03 1004.12 1004.30 1004.58 1004.53 1005.21 1006.00 1006.75 1007.78 1009.59 1010.56
995.57 995.19 994.67 994.16 993.74 993.27 993.22 993.31 993.19 993.46 994.12 994.67 995.99 998.23 999.77 1001.12 1002.24 1003.23 1004.01 1004.43 1004.42 1004.13 1004.06 1004.10 1004.38 1004.56 1005.14 1005.21 1005.32 1005.64 1005.19 1005.20 1004.85 1004.83 1004.99 1004.34 1003.54 1004.15 1004.49 1004.83 1005.02 1005.09 1005.21 1005.31 1005.18 1005.28 1005.49 1005.65 1006.26 1006.94 1007.81 1009.37 1011.48 1012.27
996.21 995.94 995.52 995.06 994.65 994.42 994.31 994.48 994.71 994.97 995.24 995.91 997.15 999.64 1000.89 1002.59 1003.24 1003.85 1004.17 1004.17 1004.08 1003.82 1003.62 1003.75 1004.20 1004.45 1005.23 1005.33 1005.25 1005.09 1004.83 1004.85 1004.96 1004.99 1004.83 1004.63 1005.08 1005.36 1005.57 1005.81 1006.12 1006.26 1006.26 1006.34 1006.64 1006.78 1007.03 1007.59 1008.23 1008.75 1009.35 1010.76 1013.12 1013.09
996.55 996.09 995.83 996.47 995.77 995.64 995.50 995.60 995.31 995.50 996.22 998.15 999.99 1002.48 1003.48 1004.69 1004.92 1004.97 1004.80 1004.43 1004.49 1004.06 1003.68 1003.71 1004.07 1004.26 1004.59 1004.85 1004.82 1004.86 1004.95 1004.96 1005.30 1005.51 1005.57 1006.20 1006.55 1006.76 1006.96 1007.06 1007.18 1007.47 1007.47 1007.58 1007.83 1008.11 1008.38 1008.85 1009.58 1010.32 1011.43 1012.78 1013.38 1013.97
996.96 996.80 996.50 996.95 996.90 996.63 996.15 995.92 996.09 996.53 998.91 1001.18 1002.53 1005.11 1006.06 1006.31 1006.34 1006.10 1005.74 1005.23 1005.14 1004.59 1004.03 1004.00 1004.05 1004.05 1004.51 1004.65 1004.74 1004.94 1005.38 1005.71 1006.12 1006.77 1007.52 1007.91 1008.00 1008.04 1008.06 1008.19 1008.41 1008.67 1008.83 1009.04 1009.42 1009.63 1010.18 1010.56 1010.85 1011.69 1013.26 1013.88 1014.26 1015.01
997.31 997.26 997.66 997.45 996.60 996.43 996.59 996.48 997.10 998.87 1001.81 1004.05 1006.16 1007.15 1007.46 1007.31 1007.54 1007.26 1006.94 1006.43 1005.95 1005.29 1004.59 1004.27 1004.39 1004.69 1004.94 1005.01 1005.34 1006.09 1006.51 1007.18 1008.24 1008.76 1009.17 1009.24 1009.36 1009.43 1009.44 1009.55 1009.57 1009.71 1010.04 1010.46 1010.87 1011.19 1011.80 1012.31 1012.66 1013.35 1014.49 1015.03 1015.71 1016.29
997.38 998.16 998.01 997.64 997.50 997.36 997.30 998.23 1000.05 1002.58 1004.90 1006.79 1008.41 1008.79 1008.87 1008.94 1008.99 1008.66 1008.16 1007.38 1006.67 1005.92 1005.30 1005.11 1005.41 1006.16 1006.25 1006.64 1007.59 1008.25 1008.85 1009.39 1009.77 1010.16 1010.33 1010.35 1010.25 1010.36 1010.36 1010.51 1010.69 1010.93 1011.32 1012.00 1012.37 1012.78 1013.18 1013.72 1014.21 1015.00 1015.53 1016.52 1017.16 1017.80
998.57 998.61 997.95 997.55 997.57 997.88 999.05 1000.25 1002.36 1004.92 1007.46 1008.77 1009.28 1009.81 1009.83 1009.91 1009.78 1009.37 1008.67 1007.88 1007.08 1006.47 1006.57 1007.23 1007.56 1008.13 1008.78 1009.06 1009.57 1009.96 1010.35 1010.86 1010.97 1011.02 1011.02 1011.09 1011.10 1011.12 1011.14 1011.47 1011.80 1012.03 1012.51 1013.14 1013.60 1013.89 1014.30 1015.00 1015.32 1016.76 1017.36 1017.94 1018.80 1019.88
998.79 998.53 998.09 997.63 997.70 998.65 1000.82 1002.90 1004.02 1007.04 1009.20 1009.75 1010.17 1010.28 1010.35 1010.52 1010.41 1010.13 1009.53 1008.76 1008.25 1007.94 1008.18 1009.31 1010.38 1011.22 1011.55 1011.34 1011.14 1011.25 1011.43 1011.56 1011.86 1012.11 1012.17 1012.11 1012.09 1012.22 1012.34 1012.63 1012.97 1013.17 1013.58 1014.15 1014.39 1014.79 1015.75 1016.28 1016.97 1017.97 1018.65 1019.28 1019.84 1021.12
998.40 998.30 998.14 998.06 997.82 999.96 1002.76 1004.67 1005.32 1007.38 1009.47 1010.46 1010.77 1010.92 1011.10 1011.40 1011.25 1010.92 1010.51 1010.03 1009.50 1009.93 1011.54 1012.98 1014.04 1014.22 1013.70 1013.06 1012.38 1012.28 1012.45 1012.66 1012.83 1013.03 1013.34 1013.47 1013.52 1013.52 1013.67 1013.90 1014.31 1014.65 1014.99 1015.62 1016.09 1016.44 1016.97 1017.79 1018.63 1019.33 1020.01 1020.68 1021.34 1022.47
998.55 998.81 998.66 998.49 999.87 1001.44 1003.98 1005.50 1006.88 1008.24 1009.48 1010.12 1010.68 1010.95 1011.64 1011.82 1011.83 1011.92 1011.95 1011.86 1012.00 1014.37 1015.50 1016.09 1015.88 1015.39 1014.95 1014.29 1013.73 1013.49 1013.51 1013.55 1013.72 1013.89 1014.24 1014.57 1014.82 1014.84 1015.02 1015.32 1015.59 1015.93 1016.32 1016.99 1017.41 1018.29 1018.88 1019.73 1020.54 1021.21 1021.74 1022.48 1023.23 1023.92
999.94 999.39 999.71 1000.06 1001.82 1003.50 1005.17 1006.06 1006.91 1008.11 1008.97 1010.01 1010.50 1011.25 1012.09 1012.66 1013.09 1013.69 1014.38 1014.58 1016.72 1017.94 1017.95 1017.54 1017.00 1016.51 1016.02 1015.60 1015.27 1014.99 1014.95 1014.79 1014.90 1015.07 1015.26 1015.45 1015.67 1016.01 1016.21 1016.51 1016.74 1017.40 1018.05 1018.59 1019.02 1019.67 1020.56 1021.34 1021.95 1022.48 1022.97 1024.10 1024.95 1025.74
1000.28 1000.48 1001.70 1002.63 1003.78 1005.22 1006.88 1006.83 1007.37 1008.17 1009.08 1010.11 1010.87 1011.95 1013.06 1013.80 1014.57 1015.00 1016.49 1018.16 1019.11 1019.45 1018.99 1018.41 1017.91 1017.62 1017.33 1017.01 1016.52 1016.31 1016.19 1016.09 1016.20 1016.43 1016.58 1016.72 1016.95 1017.23 1017.45 1017.86 1018.27 1018.64 1019.31 1020.22 1020.64 1021.19 1021.95 1022.82 1023.33 1023.73 1024.62 1025.48 1026.16 1026.85
1002.09 1004.24 1005.66 1006.54 1007.02 1008.25 1008.13 1008.81 1009.08 1009.57 1010.15 1010.81 1011.88 1013.24 1014.14 1014.88 1015.68 1016.86 1018.71 1019.99 1020.56 1020.30 1019.70 1019.21 1018.76 1018.39 1018.27 1018.08 1018.04 1018.00 1017.70 1017.53 1017.55 1017.74 1017.89 1017.90 1018.17 1018.81 1019.10 1019.50 1019.86 1020.18 1020.63 1021.30 1022.03 1022.67 1023.36 1024.09 1024.62 1025.10 1025.81 1026.48 1027.31 1027.93
1005.04 1009.55 1009.66 1010.13 1010.22 1010.29 1011.12 1011.74 1012.01 1011.88 1012.91 1013.29 1014.04 1015.22 1015.90 1016.20 1017.31 1018.92 1020.38 1021.31 1021.27 1021.18 1020.86 1020.34 1020.01 1019.91 1019.72 1019.74 1019.66 1019.50 1019.21 1018.85 1018.82 1019.00 1019.41 1019.52 1019.66 1020.10 1020.55 1021.01 1021.47 1021.90 1022.27 1022.43 1023.19 1023.81 1024.60 1025.19 1025.70 1026.32 1027.02 1027.58 1028.06 1028.61
1010.37 1012.77 1012.88 1013.23 1013.46 1013.43 1014.12 1014.75 1015.14 1015.41 1015.46 1016.01 1016.90 1017.52 1017.70 1018.36 1019.72 1021.15 1022.12 1022.53 1022.35 1022.31 1022.05 1021.63 1021.24 1021.13 1021.14 1021.20 1021.08 1020.95 1020.88 1020.54 1020.34 1020.40 1021.16 1020.96 1020.80 1020.85 1021.34 1021.85 1022.46 1023.29 1023.50 1023.67 1024.02 1024.67 1025.35 1025.97 1026.56 1027.20 1027.89 1028.50 1028.97 1029.40
1013.82 1014.93 1015.37 1015.91 1015.74 1015.86 1016.88 1017.43 1017.63 1017.85 1018.24 1018.75 1019.17 1019.46 1019.95 1021.19 1022.32 1023.04 1023.21 1023.43 1023.31 1023.32 1023.12 1022.79 1022.44 1022.33 1022.36 1022.38 1022.39 1022.34 1022.20 1022.02 1022.02 1022.44 1022.74 1022.70 1022.71 1022.73 1022.77 1023.08 1023.60 1024.20 1024.30 1024.46 1024.78 1025.18 1025.81 1026.61 1027.33 1028.02 1028.74 1029.44 1029.95 1030.20
1015.88 1016.79 1017.65 1018.66 1018.48 1018.92 1019.60 1020.28 1020.77 1021.06 1020.99 1020.98 1021.06 1022.02 1022.66 1023.39 1024.28 1024.21 1024.11 1024.12 1024.06 1024.00 1023.88 1023.74 1023.62 1023.57 1023.54 1023.60 1023.52 1023.42 1023.31 1023.28 1023.32 1023.34 1023.36 1023.77 1024.22 1024.39 1024.50 1024.61 1024.77 1024.90 1025.10 1025.36 1025.66 1026.09 1026.58 1027.22 1027.99 1028.74 1029.32 1029.89 1030.54 1031.12
1018.43 1019.13 1019.49 1020.86 1020.82 1021.61 1022.76 1023.31 1023.47 1023.23 1023.06 1022.70 1023.16 1023.76 1024.51 1025.11 1025.43 1025.04 1024.89 1024.78 1024.68 1024.67 1024.68 1024.69 1024.69 1024.62 1024.62 1024.63 1024.67 1024.68 1024.56 1024.26 1024.03 1024.29 1024.62 1025.26 1025.64 1026.22 1026.20 1026.06 1026.08 1026.17 1026.32 1026.52 1026.83 1026.97 1027.27 1027.86 1028.64 1029.47 1030.02 1030.37 1030.99 1031.35
1020.46 1020.52 1021.34 1022.53 1023.47 1024.67 1025.19 1025.15 1025.03 1024.73 1023.99 1023.82 1023.93 1024.89 1025.66 1026.35 1026.41 1026.10 1025.82 1025.71 1025.68 1025.84 1025.93 1025.89 1025.84 1025.66 1025.72 1025.65 1025.87 1025.91 1025.90 1025.69 1025.40 1025.34 1025.67 1026.33 1026.96 1027.34 1027.22 1027.17 1027.22 1027.28 1027.35 1027.52 1027.84 1028.17 1028.45 1028.96 1029.56 1030.54 1030.95 1031.16 1031.30 1031.51
1021.50 1021.85 1023.22 1024.46 1025.70 1026.24 1026.19 1026.13 1025.51 1025.44 1025.57 1025.71 1026.30 1026.84 1027.50 1027.61 1027.18 1027.12 1027.00 1026.93 1026.76 1026.69 1026.71 1026.90 1027.08 1027.19 1027.04 1027.05 1027.15 1027.13 1027.21 1027.24 1026.96 1026.80 1026.97 1027.38 1027.71 1027.93 1028.05 1028.10 1028.20 1028.07 1028.13 1028.38 1028.68 1028.96 1029.33 1029.74 1030.14 1030.69 1031.09 1031.36 1031.57 1031.74
1023.11 1024.24 1024.94 1026.24 1026.74 1026.44 1026.46 1026.99 1027.13 1027.05 1027.32 1027.26 1027.85 1027.97 1028.42 1028.48 1028.52 1028.27 1028.34 1027.91 1027.72 1027.78 1028.10 1028.13 1028.19 1028.59 1028.59 1028.49 1028.38 1028.34 1028.41 1028.47 1028.39 1028.39 1028.41 1028.56 1028.75 1028.90 1028.90 1028.95 1028.93 1028.83 1028.96 1029.25 1029.50 1029.74 1030.00 1030.24 1030.67 1031.01 1031.30 1031.55 1031.76 1031.99
1024.69 1024.92 1025.51 1026.45 1026.92 1027.12 1027.25 1027.45 1028.15 1028.46 1028.47 1028.95 1029.16 1029.43 1029.77 1029.74 1029.62 1029.40 1029.13 1028.98 1028.95 1028.98 1029.18 1029.35 1029.54 1029.53 1029.51 1029.46 1029.45 1029.40 1029.39 1029.49 1029.43 1029.30 1029.53 1029.60 1029.68 1029.65 1029.62 1029.60 1029.49 1029.46 1029.62 1029.96 1030.21 1030.35 1030.57 1030.79 1031.09 1031.33 1031.55 1031.79 1032.06 1032.29
Wind_Speed
30 30 30 30 30 29 30 28 28 28 27 27 28 29 30 32 31 21 11 12 15 7 6 12 18 14 9 11 8 2 4 6 3 5 5 5 5 6 5 7 4 5 6 6 8 6 11 2 2 3 6 13 14 12
31 31 30 30 29 28 27 26 25 25 25 26 27 27 25 30 31 27 8 11 12 8 2 11 8 15 16 17 12 9 5 4 2 4 3 3 4 2 7 6 4 6 8 3 7 6 10 13 8 10 9 9 13 5
30 29 28 27 25 25 26 26 26 26 26 25 24 24 25 25 27 25 8 8 10 8 1 5 8 13 8 12 13 9 7 9 7 5 2 2 5 2 6 8 5 5 4 5 2 2 10 16 17 10 11 14 7 5
29 29 30 30 30 29 28 27 27 26 25 25 24 24 24 25 25 25 10 9 8 2 5 3 5 7 12 11 10 7 6 5 8 4 3 4 3 4 4 5 6 6 2 2 6 8 7 5 7 12 18 10 6 5
32 32 31 29 28 27 26 26 27 27 26 25 25 24 23 23 23 14 4 9 9 5 3 3 1 10 7 10 12 8 8 9 5 4 4 5 3 3 3 2 4 4 10 5 8 9 8 11 9 14 11 8 7 4
30 22 20 17 18 19 19 21 22 26 24 25 27 28 26 23 21 7 4 7 9 4 2 3 2 3 7 11 11 11 10 5 5 3 3 4 5 4 4 4 6 10 13 14 16 13 7 8 10 3 1 3 2 12
15 13 13 10 5 9 13 15 18 19 24 26 26 27 28 27 13 5 2 6 16 5 2 2 3 3 4 4 5 4 4 5 4 2 3 5 4 6 3 9 9 11 10 9 12 5 9 5 7 3 5 8 7 11
9 6 4 6 8 9 12 15 18 22 24 24 27 26 28 28 14 4 1 21 14 5 2 3 3 2 5 4 3 4 5 5 5 3 4 3 2 3 7 4 13 17 18 15 17 9 13 8 2 5 7 7 4 11
10 11 13 7 7 16 11 10 16 24 27 27 27 27 15 6 4 6 15 18 2 3 5 3 5 4 2 3 4 3 4 5 2 5 4 5 5 9 7 9 14 13 9 7 3 4 5 8 7 6 6 10 8 10
11 11 9 13 18 16 21 15 14 27 34 32 13 6 5 5 30 22 4 2 2 2 2 4 2 3 3 2 4 3 4 5 5 8 5 5 9 12 8 12 11 6 5 3 3 5 2 4 6 6 7 10 10 9
12 11 15 17 13 18 24 28 29 30 23 5 4 5 14 22 5 3 3 3 3 3 4 4 5 5 2 4 4 3 2 4 5 5 7 5 6 4 2 3 6 6 5 4 2 4 6 5 10 11 12 14 11 13
17 18 17 17 16 15 14 9 7 5 4 10 13 8 4 3 3 5 4 4 5 6 5 5 4 3 3 1 2 3 3 2 3 5 4 4 1 4 4 4 5 4 5 6 6 5 7 10 10 13 14 16 12 14
10 13 17 18 19 22 26 24 22 24 11 4 6 6 3 3 6 6 8 3 3 4 4 4 4 4 2 2 2 3 4 3 3 4 4 1 3 5 6 4 5 5 5 7 8 10 13 14 14 15 16 16 14 15
11 12 20 24 15 14 12 14 11 6 6 6 6 7 4 4 3 2 2 2 2 2 3 4 3 2 2 3 2 3 2 3 3 4 2 4 7 5 5 5 4 6 6 7 9 11 14 16 16 15 15 14 16 17
11 14 15 16 9 7 8 12 13 6 6 7 6 6 4 2 2 3 3 1 3 3 1 3 2 2 2 3 1 3 2 3 1 0 3 6 7 5 4 5 6 6 7 8 8 11 12 14 15 17 14 15 17 17
6 6 8 17 16 14 10 10 9 5 6 6 8 4 4 2 5 4 5 3 4 4 2 1 2 2 3 1 2 3 1 1 2 2 4 4 4 4 4 6 8 8 9 9 9 12 13 13 16 17 17 17 17 18
9 3 13 12 4 12 14 6 5 8 6 6 4 3 3 2 1 3 3 4 4 3 2 2 4 2 1 4 3 3 2 3 2 2 2 3 4 5 7 9 9 11 12 12 12 14 15 15 16 16 18 16 17 18
4 5 10 6 3 4 4 6 6 7 8 5 4 4 2 2 4 3 5 5 4 3 3 4 3 6 4 3 2 2 2 3 4 4 4 5 7 7 8 10 10 12 13 13 13 14 15 15 17 12 16 17 17 16
0 7 11 8 5 5 5 6 5 7 5 2 2 2 2 2 4 5 6 7 4 5 4 4 6 4 3 3 2 1 2 2 3 4 6 8 8 9 10 11 11 12 13 12 12 10 10 13 12 10 9 10 11 10
3 13 14 12 5 5 7 4 4 6 3 2 2 5 3 3 5 5 8 8 6 5 7 7 4 4 4 4 4 4 4 4 5 6 6 7 7 10 10 9 9 12 12 13 12 13 12 11 10 9 9 10 11 11
8 7 11 7 5 7 5 3 5 4 4 3 3 1 3 4 9 8 7 8 8 7 5 4 5 5 7 6 5 5 6 5 5 4 5 6 6 7 8 8 9 8 9 8 10 11 11 10 9 9 10 10 10 10
3 8 4 5 6 5 5 4 5 4 4 4 3 3 3 3 4 6 4 9 6 4 4 4 7 6 7 10 8 8 7 9 9 8 8 8 7 7 7 7 8 9 8 8 9 10 9 9 9 9 11 11 11 10
6 6 5 8 7 7 4 1 4 2 3 3 3 4 4 3 3 3 6 5 4 5 7 4 5 6 7 8 10 12 10 9 8 7 7 7 8 8 8 8 7 8 9 8 8 9 9 11 11 11 10 10 9 10
10 8 7 6 7 3 3 5 4 3 4 3 3 4 4 3 3 5 5 3 4 7 7 10 7 4 5 9 9 8 7 6 8 8 7 7 9 9 8 8 8 8 8 8 9 8 9 9 10 9 10 10 9 9
11 11 7 7 5 6 6 5 6 5 5 6 4 5 4 3 4 5 3 5 6 7 8 7 7 7 6 6 6 7 10 7 7 9 8 6 7 8 8 8 9 8 6 8 8 9 9 8 9 9 10 9 11 11
11 7 7 6 5 5 4 4 5 5 4 4 5 2 3 4 5 5 3 6 5 6 7 7 6 5 7 7 6 6 7 6 6 9 7 7 6 6 7 8 7 6 5 6 8 10 10 9 9 11 10 10 11 11
8 6 4 5 4 4 5 5 5 5 5 5 3 4 4 6 4 3 2 4 3 4 5 6 6 6 6 6 6 7 7 8 9 7 7 8 8 8 6 6 7 3 4 6 7 9 10 10 9 9 9 7 6 7
5 5 6 6 6 6 5 5 5 5 3 4 3 6 4 3 3 2 3 3 3 4 5 6 7 6 6 6 6 5 6 5 6 7 8 10 9 8 8 7 7 10 6 6 7 7 8 9 9 9 9 8 5 2
5 3 4 7 5 7 7 5 3 3 4 2 4 3 3 3 3 3 3 3 4 4 5 5 5 4 5 6 6 6 6 5 3 8 10 5 5 7 6 5 6 6 6 8 10 8 9 7 7 7 7 6 5 4
3 2 6 5 7 7 4 2 3 3 2 2 3 5 4 3 4 5 5 5 5 4 4 4 4 5 5 5 6 8 7 7 6 3 5 5 3 1 3 4 5 5 5 7 8 9 11 9 9 4 5 4 3 3
2 4 6 6 5 2 3 3 2 2 5 5 4 4 3 1 1 4 6 5 4 4 5 5 6 6 5 5 4 4 6 7 8 10 8 6 5 5 4 4 3 4 5 6 6 6 6 4 4 5 5 5 4 3
5 4 5 6 1 3 3 4 2 3 4 4 4 2 3 4 4 4 6 4 4 6 6 4 5 5 4 4 5 6 6 4 5 5 7 5 5 4 4 3 3 3 5 5 4 4 4 5 4 3 3 4 3 3
4 3 4 5 3 2 2 4 4 2 4 3 3 1 1 3 2 1 2 4 3 2 3 3 3 4 5 6 5 5 5 5 7 9 8 8 7 5 3 3 3 4 5 5 4 3 4 4 3 3 3 3 3 3
Wind_Direction
286 282 278 275 271 267 263 259 255 252 248 244 239 235 229 218 214 209 211 196 199 233 228 218 217 216 196 203 222 215 176 170 177 212 188 176 219 215 234 252 264 192 185 198 219 241 241 309 212 98 198 276 283 285
279 276 273 269 265 262 256 251 246 242 241 240 234 228 229 219 213 204 213 192 194 210 265 206 233 220 208 195 198 186 222 164 191 194 205 203 208 225 204 243 197 235 205 193 208 210 303 277 289 285 262 202 268 261
282 278 275 270 263 260 254 249 245 242 239 234 228 224 217 214 208 202 190 175 182 209 281 222 212 235 232 221 199 194 212 206 175 205 138 219 247 214 197 224 241 245 204 232 295 272 238 289 286 264 285 264 243 220
285 281 275 267 263 258 251 248 244 239 231 225 221 217 212 204 203 196 194 167 171 143 225 198 235 215 213 209 214 211 206 173 215 199 217 204 207 166 273 266 221 230 276 298 281 277 260 217 356 330 310 318 346 336
284 278 273 266 257 253 250 244 240 232 225 221 214 208 203 198 196 185 147 173 172 178 175 165 195 233 233 197 199 194 207 222 205 220 202 207 194 225 220 260 246 216 245 237 257 273 273 291 325 324 331 358 351 15
286 279 283 260 254 252 249 238 234 224 218 213 208 198 196 186 178 150 154 191 172 117 143 150 266 251 188 211 219 213 209 211 204 194 193 224 231 217 222 237 260 247 240 245 261 277 251 282 294 300 264 359 29 85
290 290 279 275 257 249 250 242 228 217 210 202 197 192 185 175 167 157 168 150 162 121 159 130 264 266 191 152 197 192 178 215 220 191 220 223 227 201 215 240 261 261 261 258 255 250 277 246 285 34 118 90 51 90
331 339 1 338 336 313 269 247 231 214 203 195 181 181 166 159 140 159 341 154 135 113 155 169 240 209 159 160 191 166 175 179 213 208 176 208 227 224 249 218 233 244 246 257 259 243 247 272 152 123 121 126 109 89
29 51 69 70 358 328 289 258 227 202 179 170 165 159 141 93 130 137 148 146 71 132 167 167 165 185 152 185 161 167 157 183 190 204 208 184 195 226 224 207 238 233 218 234 267 312 278 220 166 135 125 96 104 106
79 81 59 21 30 56 58 63 96 139 143 144 117 87 114 156 117 112 103 107 137 199 146 195 174 157 173 136 158 168 165 187 190 211 161 214 245 250 236 234 257 297 252 209 269 279 221 238 135 112 106 110 122 127
42 30 17 24 56 61 67 73 77 91 97 67 104 94 110 107 86 129 128 150 138 179 197 194 192 151 217 162 173 217 162 171 199 178 190 198 245 211 353 315 37 21 20 37 347 325 291 230 157 131 112 107 122 130
40 20 17 34 42 61 116 132 85 64 94 99 106 92 87 98 74 102 132 154 189 212 175 177 161 144 141 142 141 201 187 162 233 143 192 231 130 55 51 50 36 38 41 39 43 69 73 92 118 117 116 115 121 118
52 36 50 35 41 81 83 71 75 94 97 68 56 71 80 346 70 120 170 177 187 174 173 154 141 140 122 176 157 209 172 171 147 186 219 53 51 32 21 22 40 46 78 94 86 91 100 103 104 111 110 108 123 109
24 34 43 44 15 33 37 49 33 51 61 60 62 55 64 11 39 34 10 40 52 287 131 103 115 150 148 159 156 175 186 157 206 223 229 26 6 9 20 35 58 52 65 88 102 105 103 102 99 96 101 115 113 106
45 47 30 21 30 72 38 47 52 51 53 59 43 54 53 18 17 5 321 30 360 299 157 116 111 126 142 137 205 125 135 212 275 8 356 342 349 2 40 64 81 79 75 79 89 98 99 105 105 103 107 111 107 106
108 55 9 353 352 25 65 34 30 50 51 57 46 43 341 52 5 5 359 359 354 329 284 156 135 120 80 94 132 45 294 55 35 339 335 341 19 37 70 81 85 85 85 86 90 94 99 101 102 103 103 99 96 99
70 42 336 333 13 46 40 70 57 53 67 53 43 24 18 80 326 316 319 324 309 290 70 58 62 52 23 60 61 22 38 350 353 6 12 44 79 86 88 89 89 92 91 91 94 97 95 97 97 96 95 92 95 93
52 297 328 348 144 67 49 40 74 68 65 32 62 8 17 26 344 326 328 319 329 26 37 59 40 43 39 43 34 25 75 51 41 41 50 68 81 83 87 95 99 102 102 103 101 98 95 97 94 93 98 99 96 96
160 15 22 38 95 87 69 40 58 86 56 64 21 358 24 355 356 360 356 359 16 24 74 49 53 40 11 354 344 21 31 56 65 51 45 46 72 87 92 93 93 95 99 99 99 93 94 91 96 102 100 101 95 92
27 26 15 32 69 76 69 44 63 86 83 130 65 38 51 13 351 1 20 11 23 55 48 44 25 336 317 325 352 69 80 85 97 83 61 48 56 72 74 86 89 93 88 88 85 88 89 82 76 82 87 92 99 99
28 346 4 40 46 60 81 74 62 95 134 98 169 115 61 31 37 25 25 358 47 34 54 23 348 353 354 11 21 51 56 68 66 88 104 86 68 77 77 75 79 83 86 88 88 80 78 84 91 90 91 90 92 92
332 359 44 24 78 72 80 16 102 138 88 126 117 66 53 31 22 30 23 34 57 21 355 324 345 350 20 29 30 36 50 69 67 69 64 77 80 75 71 73 83 79 75 80 89 91 89 91 93 93 92 94 96 103
6 30 40 20 66 50 66 111 73 92 93 100 100 66 49 48 42 36 66 41 41 354 336 331 333 22 32 28 44 42 39 63 66 63 66 71 68 67 73 69 74 92 90 77 84 91 92 97 95 97 99 102 104 102
34 45 33 40 35 55 36 33 18 51 46 47 71 84 64 62 58 63 69 46 351 345 357 5 6 24 39 42 39 26 27 48 72 61 49 72 73 60 63 67 64 67 81 94 94 94 96 97 104 103 105 107 109 114
67 2 34 16 12 46 45 30 14 35 53 29 66 49 35 37 68 63 58 6 350 357 355 359 27 28 36 41 35 33 26 40 65 72 46 66 92 92 77 70 66 70 93 101 97 100 101 103 103 111 118 121 120 115
71 4 42 18 15 48 26 57 35 30 32 57 45 19 34 62 63 58 41 349 348 358 351 357 12 39 43 29 34 22 9 14 67 70 38 28 50 82 96 98 93 63 53 103 117 116 113 112 115 116 113 112 116 120
63 17 43 25 360 56 61 45 39 52 54 35 7 32 49 64 62 54 15 14 350 356 0 10 31 47 53 49 46 41 44 49 59 73 71 55 49 41 58 91 95 90 100 108 114 122 125 127 124 123 121 119 131 139
64 44 58 339 51 30 81 48 37 28 21 358 51 39 81 86 70 21 11 16 32 38 46 46 46 49 51 41 34 42 56 61 81 88 84 62 48 40 41 55 59 75 73 77 102 110 122 130 136 140 138 131 129 139
44 1 72 33 42 45 39 37 18 352 340 39 99 83 86 59 354 354 14 25 42 56 55 49 39 47 60 57 47 36 25 15 78 90 81 78 56 30 16 48 65 70 79 83 82 94 105 116 126 132 128 129 119 113
7 21 86 56 56 44 342 17 340 318 328 39 78 95 71 55 13 9 29 31 44 50 40 44 31 40 45 49 54 47 28 19 21 76 110 105 97 70 56 71 81 80 88 93 95 93 91 95 103 93 108 117 131 137
4 60 70 52 74 300 237 289 304 84 32 46 26 85 93 56 53 32 29 10 33 42 52 49 46 25 37 38 41 61 60 21 32 57 74 86 84 75 71 69 72 86 95 104 109 109 114 97 107 122 127 134 142 149
34 67 113 98 170 285 28 51 46 60 353 40 7 44 22 48 46 6 359 355 45 55 41 57 72 57 42 59 58 60 63 64 48 48 61 71 69 61 63 64 74 92 102 105 109 110 112 125 132 148 148 159 161 165
66 60 58 87 62 11 310 82 29 39 29 40 13 40 94 122 130 289 352 26 55 89 89 83 82 74 66 66 70 68 58 59 57 63 65 68 72 71 71 61 68 82 96 100 102 115 130 131 137 154 159 172 188 217